Private Wetterstation Sandau
Wetterdaten: Dienstag, 21.08.2012
Datum Zeit Temp. A. Feuchte A. Luftdruck Regen Wind Richtung Richtung Taupunkt Windchill
21.08.2012 00:01 22,3 C 67 % 1019,3 hPa 0,0 l/m 2,5 km/h (1 Bft) N-NO 22 15,9 C 22,3 C
21.08.2012 00:06 22,2 C 67 % 1019,3 hPa 0,0 l/m 0,0 km/h (0 Bft) N-NO 22 15,8 C 22,2 C
21.08.2012 00:11 22,1 C 67 % 1019,3 hPa 0,0 l/m 0,0 km/h (0 Bft) N 360 15,7 C 22,1 C
21.08.2012 00:16 22,1 C 68 % 1019,5 hPa 0,0 l/m 3,2 km/h (1 Bft) N 360 15,9 C 22,1 C
21.08.2012 00:21 21,9 C 68 % 1019,4 hPa 0,0 l/m 1,8 km/h (1 Bft) N-NO 22 15,7 C 21,9 C
21.08.2012 00:26 21,9 C 68 % 1019,4 hPa 0,0 l/m 3,2 km/h (1 Bft) N-NO 22 15,7 C 21,9 C
21.08.2012 00:31 21,9 C 69 % 1019,4 hPa 0,0 l/m 3,2 km/h (1 Bft) N-NO 22 15,9 C 21,9 C
21.08.2012 00:36 21,8 C 69 % 1019,5 hPa 0,0 l/m 4,0 km/h (1 Bft) N 360 15,9 C 21,8 C
21.08.2012 00:41 21,8 C 69 % 1019,6 hPa 0,0 l/m 6,5 km/h (2 Bft) N 360 15,9 C 21,8 C
21.08.2012 00:46 21,8 C 70 % 1019,7 hPa 0,0 l/m 4,0 km/h (1 Bft) N 360 16,1 C 21,8 C
21.08.2012 00:51 21,8 C 70 % 1019,8 hPa 0,0 l/m 4,7 km/h (1 Bft) N-NO 22 16,1 C 21,8 C
21.08.2012 00:56 21,6 C 71 % 1019,7 hPa 0,0 l/m 4,7 km/h (1 Bft) N-NO 22 16,1 C 21,6 C
21.08.2012 01:01 21,6 C 71 % 1019,8 hPa 0,0 l/m 4,7 km/h (1 Bft) N-NO 22 16,1 C 21,6 C
21.08.2012 01:06 21,6 C 71 % 1020,0 hPa 0,0 l/m 3,6 km/h (1 Bft) N-NO 22 16,1 C 21,6 C
21.08.2012 01:11 21,6 C 71 % 1020,0 hPa 0,0 l/m 3,2 km/h (1 Bft) N-NO 22 16,1 C 21,6 C
21.08.2012 01:16 21,5 C 71 % 1020,0 hPa 0,0 l/m 0,0 km/h (0 Bft) N-NO 22 16,0 C 21,5 C
21.08.2012 01:21 21,5 C 72 % 1020,1 hPa 0,0 l/m 2,5 km/h (1 Bft) NW 315 16,2 C 21,5 C
21.08.2012 01:26 21,4 C 71 % 1020,2 hPa 0,0 l/m 3,2 km/h (1 Bft) W-NW 292 15,9 C 21,4 C
21.08.2012 01:31 21,4 C 72 % 1020,3 hPa 0,0 l/m 6,5 km/h (2 Bft) N-NW 337 16,1 C 21,4 C
21.08.2012 01:36 21,3 C 72 % 1020,3 hPa 0,0 l/m 0,0 km/h (0 Bft) W-NW 292 16,0 C 21,3 C
21.08.2012 01:41 21,2 C 72 % 1020,4 hPa 0,0 l/m 1,1 km/h (1 Bft) W-NW 292 15,9 C 21,2 C
21.08.2012 01:46 21,1 C 73 % 1020,3 hPa 0,0 l/m 2,5 km/h (1 Bft) W 270 16,1 C 21,1 C
21.08.2012 01:51 21,0 C 73 % 1020,3 hPa 0,0 l/m 3,2 km/h (1 Bft) W-NW 292 16,0 C 21,0 C
21.08.2012 01:56 20,9 C 74 % 1020,2 hPa 0,0 l/m 2,2 km/h (1 Bft) W-NW 292 16,1 C 20,9 C
21.08.2012 02:01 20,8 C 74 % 1020,2 hPa 0,0 l/m 4,3 km/h (1 Bft) W-NW 292 16,0 C 20,8 C
21.08.2012 02:06 20,7 C 75 % 1020,3 hPa 0,0 l/m 4,0 km/h (1 Bft) W-NW 292 16,1 C 20,7 C
21.08.2012 02:11 20,6 C 75 % 1020,3 hPa 0,0 l/m 2,2 km/h (1 Bft) W-NW 292 16,0 C 20,6 C
21.08.2012 02:16 20,5 C 76 % 1020,4 hPa 0,0 l/m 2,2 km/h (1 Bft) W 270 16,1 C 20,5 C
21.08.2012 02:21 20,4 C 77 % 1020,3 hPa 0,0 l/m 3,2 km/h (1 Bft) N-NW 337 16,2 C 20,4 C
21.08.2012 02:26 20,3 C 77 % 1020,3 hPa 0,0 l/m 6,1 km/h (2 Bft) W 270 16,1 C 20,3 C
21.08.2012 02:31 20,3 C 77 % 1020,3 hPa 0,0 l/m 6,1 km/h (2 Bft) W-NW 292 16,1 C 20,3 C
21.08.2012 02:36 20,2 C 78 % 1020,3 hPa 0,0 l/m 7,6 km/h (2 Bft) NW 315 16,2 C 20,2 C
21.08.2012 02:41 20,1 C 78 % 1020,4 hPa 0,0 l/m 7,2 km/h (2 Bft) N-NW 337 16,1 C 20,1 C
21.08.2012 02:46 19,9 C 78 % 1020,4 hPa 0,0 l/m 8,6 km/h (2 Bft) NW 315 15,9 C 19,9 C
21.08.2012 02:51 19,9 C 78 % 1020,3 hPa 0,0 l/m 8,6 km/h (2 Bft) NW 315 15,9 C 19,9 C
21.08.2012 02:56 19,8 C 78 % 1020,3 hPa 0,0 l/m 2,9 km/h (1 Bft) NW 315 15,8 C 19,8 C
21.08.2012 03:01 19,7 C 79 % 1020,4 hPa 0,0 l/m 5,4 km/h (1 Bft) NW 315 16,0 C 19,7 C
21.08.2012 03:06 19,6 C 79 % 1020,3 hPa 0,0 l/m 3,2 km/h (1 Bft) NW 315 15,9 C 19,6 C
21.08.2012 03:11 19,5 C 79 % 1020,4 hPa 0,0 l/m 4,0 km/h (1 Bft) NW 315 15,8 C 19,5 C
21.08.2012 03:16 19,4 C 80 % 1020,4 hPa 0,0 l/m 6,5 km/h (2 Bft) W-NW 292 15,9 C 19,4 C
21.08.2012 03:21 19,3 C 80 % 1020,4 hPa 0,0 l/m 2,9 km/h (1 Bft) N-NW 337 15,8 C 19,3 C
21.08.2012 03:26 19,3 C 80 % 1020,4 hPa 0,0 l/m 4,7 km/h (1 Bft) NW 315 15,8 C 19,3 C
21.08.2012 03:31 19,2 C 80 % 1020,4 hPa 0,0 l/m 0,0 km/h (0 Bft) NW 315 15,7 C 19,2 C
21.08.2012 03:36 19,1 C 80 % 1020,3 hPa 0,0 l/m 7,9 km/h (2 Bft) NW 315 15,6 C 19,1 C
21.08.2012 03:41 19,0 C 81 % 1020,3 hPa 0,0 l/m 6,5 km/h (2 Bft) NW 315 15,7 C 19,0 C
21.08.2012 03:46 18,9 C 81 % 1020,4 hPa 0,0 l/m 7,2 km/h (2 Bft) N-NW 337 15,6 C 18,9 C
21.08.2012 03:51 18,9 C 82 % 1020,3 hPa 0,0 l/m 1,1 km/h (1 Bft) N 360 15,8 C 18,9 C
21.08.2012 03:56 18,8 C 82 % 1020,1 hPa 0,0 l/m 4,0 km/h (1 Bft) N 360 15,7 C 18,8 C
21.08.2012 04:01 18,8 C 83 % 1020,2 hPa 0,0 l/m 4,0 km/h (1 Bft) N 360 15,8 C 18,8 C
21.08.2012 04:06 18,7 C 83 % 1020,3 hPa 0,0 l/m 7,2 km/h (2 Bft) N-NW 337 15,8 C 18,7 C
21.08.2012 04:11 18,7 C 83 % 1020,4 hPa 0,0 l/m 3,6 km/h (1 Bft) N-NW 337 15,8 C 18,7 C
21.08.2012 04:16 18,6 C 83 % 1020,3 hPa 0,0 l/m 7,6 km/h (2 Bft) NW 315 15,7 C 18,6 C
21.08.2012 04:21 18,5 C 83 % 1020,1 hPa 0,0 l/m 6,1 km/h (2 Bft) NW 315 15,6 C 18,5 C
21.08.2012 04:26 18,4 C 83 % 1020,0 hPa 0,0 l/m 4,0 km/h (1 Bft) W-SW 247 15,5 C 18,4 C
21.08.2012 04:31 18,4 C 83 % 1020,0 hPa 0,0 l/m 2,9 km/h (1 Bft) NW 315 15,5 C 18,4 C
21.08.2012 04:36 18,3 C 83 % 1020,1 hPa 0,0 l/m 3,6 km/h (1 Bft) NW 315 15,4 C 18,3 C
21.08.2012 04:41 18,3 C 83 % 1020,0 hPa 0,0 l/m 7,2 km/h (2 Bft) N 360 15,4 C 18,3 C
21.08.2012 04:46 18,2 C 83 % 1020,0 hPa 0,0 l/m 4,0 km/h (1 Bft) W 270 15,3 C 18,2 C
21.08.2012 04:51 18,2 C 83 % 1020,0 hPa 0,0 l/m 0,0 km/h (0 Bft) N-NW 337 15,3 C 18,2 C
21.08.2012 04:56 18,1 C 83 % 1020,2 hPa 0,0 l/m 2,5 km/h (1 Bft) W-NW 292 15,2 C 18,1 C
21.08.2012 05:01 18,1 C 83 % 1020,1 hPa 0,0 l/m 6,1 km/h (2 Bft) NW 315 15,2 C 18,1 C
21.08.2012 05:06 17,9 C 83 % 1020,1 hPa 0,0 l/m 2,2 km/h (1 Bft) W-NW 292 15,0 C 17,9 C
21.08.2012 05:11 17,9 C 83 % 1020,2 hPa 0,0 l/m 2,5 km/h (1 Bft) W-NW 292 15,0 C 17,9 C
21.08.2012 05:16 17,9 C 83 % 1020,3 hPa 0,0 l/m 3,2 km/h (1 Bft) NW 315 15,0 C 17,9 C
21.08.2012 05:21 17,9 C 84 % 1020,4 hPa 0,0 l/m 4,0 km/h (1 Bft) NW 315 15,2 C 17,9 C
21.08.2012 05:26 17,8 C 84 % 1020,4 hPa 0,0 l/m 5,0 km/h (1 Bft) NW 315 15,1 C 17,8 C
21.08.2012 05:31 17,8 C 84 % 1020,3 hPa 0,0 l/m 4,0 km/h (1 Bft) W 270 15,1 C 17,8 C
21.08.2012 05:36 17,7 C 84 % 1020,4 hPa 0,0 l/m 6,1 km/h (2 Bft) NW 315 15,0 C 17,7 C
21.08.2012 05:41 17,6 C 84 % 1020,3 hPa 0,0 l/m 3,2 km/h (1 Bft) NW 315 14,9 C 17,6 C
21.08.2012 05:46 17,6 C 84 % 1020,3 hPa 0,0 l/m 1,4 km/h (1 Bft) N 360 14,9 C 17,6 C
21.08.2012 05:51 17,5 C 85 % 1020,3 hPa 0,0 l/m 2,5 km/h (1 Bft) W-NW 292 14,9 C 17,5 C
21.08.2012 05:56 17,5 C 85 % 1020,4 hPa 0,0 l/m 6,1 km/h (2 Bft) NW 315 14,9 C 17,5 C
21.08.2012 06:01 17,4 C 85 % 1020,4 hPa 0,0 l/m 2,5 km/h (1 Bft) W-NW 292 14,8 C 17,4 C
21.08.2012 06:06 17,4 C 85 % 1020,4 hPa 0,0 l/m 5,4 km/h (1 Bft) W-NW 292 14,8 C 17,4 C
21.08.2012 06:11 17,3 C 85 % 1020,4 hPa 0,0 l/m 5,4 km/h (1 Bft) NW 315 14,8 C 17,3 C
21.08.2012 06:16 17,3 C 85 % 1020,4 hPa 0,0 l/m 1,4 km/h (1 Bft) N-NW 337 14,8 C 17,3 C
21.08.2012 06:21 17,3 C 86 % 1020,5 hPa 0,0 l/m 2,2 km/h (1 Bft) NO 45 14,9 C 17,3 C
21.08.2012 06:26 17,3 C 86 % 1020,6 hPa 0,0 l/m 0,0 km/h (0 Bft) N-NW 337 14,9 C 17,3 C
21.08.2012 06:31 17,3 C 86 % 1020,7 hPa 0,0 l/m 1,8 km/h (1 Bft) NO 45 14,9 C 17,3 C
21.08.2012 06:36 17,3 C 86 % 1020,7 hPa 0,0 l/m 0,0 km/h (0 Bft) W-NW 292 14,9 C 17,3 C
21.08.2012 06:41 17,4 C 86 % 1020,8 hPa 0,0 l/m 0,0 km/h (0 Bft) N 360 15,0 C 17,4 C
21.08.2012 06:46 17,4 C 86 % 1020,9 hPa 0,0 l/m 2,2 km/h (1 Bft) N-NW 337 15,0 C 17,4 C
21.08.2012 06:51 17,5 C 86 % 1020,8 hPa 0,0 l/m 0,0 km/h (0 Bft) N-NO 22 15,1 C 17,5 C
21.08.2012 06:56 17,6 C 86 % 1020,8 hPa 0,0 l/m 0,0 km/h (0 Bft) N 360 15,2 C 17,6 C
21.08.2012 07:01 17,8 C 86 % 1020,8 hPa 0,0 l/m 2,9 km/h (1 Bft) N 360 15,4 C 17,8 C
21.08.2012 07:06 18,1 C 86 % 1020,7 hPa 0,0 l/m 6,1 km/h (2 Bft) N-NO 22 15,7 C 18,1 C
21.08.2012 07:11 18,2 C 85 % 1020,7 hPa 0,0 l/m 4,3 km/h (1 Bft) N 360 15,6 C 18,2 C
21.08.2012 07:16 18,3 C 84 % 1020,8 hPa 0,0 l/m 2,2 km/h (1 Bft) NO 45 15,5 C 18,3 C
21.08.2012 07:21 18,2 C 84 % 1020,8 hPa 0,0 l/m 6,1 km/h (2 Bft) NW 315 15,4 C 18,2 C
21.08.2012 07:26 18,2 C 84 % 1020,8 hPa 0,0 l/m 5,4 km/h (1 Bft) N-NW 337 15,4 C 18,2 C
21.08.2012 07:31 18,1 C 84 % 1020,7 hPa 0,0 l/m 3,2 km/h (1 Bft) NO 45 15,4 C 18,1 C
21.08.2012 07:36 18,2 C 84 % 1020,7 hPa 0,0 l/m 0,0 km/h (0 Bft) N-NO 22 15,4 C 18,2 C
21.08.2012 07:41 18,4 C 84 % 1020,8 hPa 0,0 l/m 1,4 km/h (1 Bft) N 360 15,6 C 18,4 C
21.08.2012 07:46 18,6 C 84 % 1020,6 hPa 0,0 l/m 0,0 km/h (0 Bft) N-NO 22 15,8 C 18,6 C
21.08.2012 07:51 18,9 C 83 % 1020,7 hPa 0,0 l/m 3,2 km/h (1 Bft) N-NW 337 15,9 C 18,9 C
21.08.2012 07:56 19,0 C 82 % 1020,7 hPa 0,0 l/m 0,0 km/h (0 Bft) N-NW 337 15,9 C 19,0 C
21.08.2012 08:01 19,3 C 81 % 1020,7 hPa 0,0 l/m 0,0 km/h (0 Bft) N 360 16,0 C 19,3 C
21.08.2012 08:06 19,4 C 81 % 1020,6 hPa 0,0 l/m 3,2 km/h (1 Bft) N-NW 337 16,1 C 19,4 C
21.08.2012 08:11 19,6 C 80 % 1020,6 hPa 0,0 l/m 4,0 km/h (1 Bft) N-NW 337 16,1 C 19,6 C
21.08.2012 08:16 19,6 C 80 % 1020,6 hPa 0,0 l/m 1,4 km/h (1 Bft) W-NW 292 16,1 C 19,6 C
21.08.2012 08:21 19,8 C 79 % 1020,5 hPa 0,0 l/m 2,9 km/h (1 Bft) N-NW 337 16,0 C 19,8 C
21.08.2012 08:26 19,9 C 79 % 1020,4 hPa 0,0 l/m 3,6 km/h (1 Bft) NW 315 16,1 C 19,9 C
21.08.2012 08:31 20,1 C 79 % 1020,3 hPa 0,0 l/m 3,6 km/h (1 Bft) W-NW 292 16,3 C 20,1 C
21.08.2012 08:36 20,3 C 78 % 1020,4 hPa 0,0 l/m 3,2 km/h (1 Bft) NW 315 16,3 C 20,3 C
21.08.2012 08:41 20,3 C 77 % 1020,4 hPa 0,0 l/m 1,8 km/h (1 Bft) W-NW 292 16,1 C 20,3 C
21.08.2012 08:46 20,4 C 77 % 1020,5 hPa 0,0 l/m 4,0 km/h (1 Bft) NW 315 16,2 C 20,4 C
21.08.2012 08:51 20,6 C 77 % 1020,6 hPa 0,0 l/m 4,0 km/h (1 Bft) W 270 16,4 C 20,6 C
21.08.2012 08:56 20,7 C 76 % 1020,6 hPa 0,0 l/m 2,9 km/h (1 Bft) W 270 16,3 C 20,7 C
21.08.2012 09:01 20,9 C 75 % 1020,5 hPa 0,0 l/m 6,5 km/h (2 Bft) N 360 16,3 C 20,9 C
21.08.2012 09:06 20,9 C 75 % 1020,5 hPa 0,0 l/m 3,6 km/h (1 Bft) N-NO 22 16,3 C 20,9 C
21.08.2012 09:11 21,0 C 74 % 1020,7 hPa 0,0 l/m 5,8 km/h (2 Bft) N-NW 337 16,2 C 21,0 C
21.08.2012 09:16 20,9 C 74 % 1020,5 hPa 0,0 l/m 5,8 km/h (2 Bft) N-NO 22 16,1 C 20,9 C
21.08.2012 09:21 20,7 C 74 % 1020,5 hPa 0,0 l/m 2,5 km/h (1 Bft) NO 45 15,9 C 20,7 C
21.08.2012 09:26 20,6 C 74 % 1020,7 hPa 0,0 l/m 5,0 km/h (1 Bft) N 360 15,8 C 20,6 C
21.08.2012 09:31 20,7 C 74 % 1020,5 hPa 0,0 l/m 1,8 km/h (1 Bft) N 360 15,9 C 20,7 C
21.08.2012 09:36 20,9 C 74 % 1020,6 hPa 0,0 l/m 1,8 km/h (1 Bft) W-NW 292 16,1 C 20,9 C
21.08.2012 09:41 21,3 C 73 % 1020,5 hPa 0,0 l/m 1,4 km/h (1 Bft) W 270 16,3 C 21,3 C
21.08.2012 09:46 21,8 C 72 % 1020,6 hPa 0,0 l/m 2,2 km/h (1 Bft) NW 315 16,5 C 21,8 C
21.08.2012 09:51 21,9 C 71 % 1020,6 hPa 0,0 l/m 0,0 km/h (0 Bft) W-NW 292 16,4 C 21,9 C
21.08.2012 09:56 22,0 C 70 % 1020,5 hPa 0,0 l/m 0,0 km/h (0 Bft) NW 315 16,3 C 22,0 C
21.08.2012 10:01 22,1 C 68 % 1020,4 hPa 0,0 l/m 4,3 km/h (1 Bft) N-NO 22 15,9 C 22,1 C
21.08.2012 10:06 21,9 C 68 % 1020,4 hPa 0,0 l/m 0,0 km/h (0 Bft) NW 315 15,7 C 21,9 C
21.08.2012 10:11 21,9 C 68 % 1020,5 hPa 0,0 l/m 2,5 km/h (1 Bft) W-SW 247 15,7 C 21,9 C
21.08.2012 10:16 22,2 C 68 % 1020,6 hPa 0,0 l/m 6,5 km/h (2 Bft) W-NW 292 16,0 C 22,2 C
21.08.2012 10:21 22,3 C 67 % 1020,4 hPa 0,0 l/m 2,9 km/h (1 Bft) N-NW 337 15,9 C 22,3 C
21.08.2012 10:26 22,3 C 66 % 1020,4 hPa 0,0 l/m 0,0 km/h (0 Bft) N 360 15,6 C 22,3 C
21.08.2012 10:31 22,4 C 66 % 1020,4 hPa 0,0 l/m 4,0 km/h (1 Bft) O-NO 67 15,7 C 22,4 C
21.08.2012 10:36 22,5 C 65 % 1020,4 hPa 0,0 l/m 3,2 km/h (1 Bft) O-NO 67 15,6 C 22,5 C
21.08.2012 10:41 22,6 C 65 % 1020,3 hPa 0,0 l/m 4,0 km/h (1 Bft) O 90 15,7 C 22,6 C
21.08.2012 10:46 22,6 C 65 % 1020,3 hPa 0,0 l/m 3,2 km/h (1 Bft) NO 45 15,7 C 22,6 C
21.08.2012 10:51 22,8 C 65 % 1020,3 hPa 0,0 l/m 2,5 km/h (1 Bft) N 360 15,9 C 22,8 C
21.08.2012 10:56 23,0 C 64 % 1020,3 hPa 0,0 l/m 4,7 km/h (1 Bft) O-NO 67 15,8 C 23,0 C
21.08.2012 11:01 23,2 C 64 % 1020,2 hPa 0,0 l/m 4,0 km/h (1 Bft) N-NO 22 16,0 C 23,2 C
21.08.2012 11:06 23,1 C 64 % 1020,2 hPa 0,0 l/m 4,0 km/h (1 Bft) S-SW 202 15,9 C 23,1 C
21.08.2012 11:11 23,4 C 64 % 1020,3 hPa 0,0 l/m 0,0 km/h (0 Bft) W-NW 292 16,2 C 23,4 C
21.08.2012 11:16 23,4 C 64 % 1020,3 hPa 0,0 l/m 3,2 km/h (1 Bft) W-SW 247 16,2 C 23,4 C
21.08.2012 11:21 23,6 C 63 % 1020,1 hPa 0,0 l/m 3,6 km/h (1 Bft) N-NO 22 16,1 C 23,6 C
21.08.2012 11:26 23,6 C 62 % 1020,2 hPa 0,0 l/m 0,0 km/h (0 Bft) O-NO 67 15,9 C 23,6 C
21.08.2012 11:31 23,9 C 62 % 1020,2 hPa 0,0 l/m 2,2 km/h (1 Bft) W-SW 247 16,2 C 23,9 C
21.08.2012 11:36 24,2 C 62 % 1020,0 hPa 0,0 l/m 0,0 km/h (0 Bft) SW 225 16,4 C 24,2 C
21.08.2012 11:41 24,4 C 61 % 1019,9 hPa 0,0 l/m 2,5 km/h (1 Bft) N-NO 22 16,4 C 24,4 C
21.08.2012 11:46 24,2 C 59 % 1019,8 hPa 0,0 l/m 3,2 km/h (1 Bft) O-NO 67 15,7 C 24,2 C
21.08.2012 11:51 24,1 C 59 % 1019,7 hPa 0,0 l/m 1,4 km/h (1 Bft) O-NO 67 15,6 C 24,1 C
21.08.2012 11:56 23,9 C 59 % 1019,7 hPa 0,0 l/m 0,0 km/h (0 Bft) N-NO 22 15,4 C 23,9 C
21.08.2012 12:01 23,9 C 59 % 1019,7 hPa 0,0 l/m 1,4 km/h (1 Bft) N-NO 22 15,4 C 23,9 C
21.08.2012 12:06 23,9 C 59 % 1019,7 hPa 0,0 l/m 5,0 km/h (1 Bft) O-NO 67 15,4 C 23,9 C
21.08.2012 12:11 24,1 C 60 % 1019,6 hPa 0,0 l/m 2,5 km/h (1 Bft) NO 45 15,8 C 24,1 C
21.08.2012 12:16 24,5 C 59 % 1019,4 hPa 0,0 l/m 4,0 km/h (1 Bft) NO 45 15,9 C 24,5 C
21.08.2012 12:21 24,6 C 58 % 1019,4 hPa 0,0 l/m 1,1 km/h (1 Bft) O-SO 112 15,8 C 24,6 C
21.08.2012 12:26 24,9 C 58 % 1019,5 hPa 0,0 l/m 4,0 km/h (1 Bft) S 180 16,1 C 24,9 C
21.08.2012 12:31 25,2 C 57 % 1019,4 hPa 0,0 l/m 1,1 km/h (1 Bft) S-SW 202 16,1 C 25,2 C
21.08.2012 12:36 25,4 C 57 % 1019,4 hPa 0,0 l/m 0,0 km/h (0 Bft) S-SW 202 16,2 C 25,4 C
21.08.2012 12:41 25,5 C 56 % 1019,3 hPa 0,0 l/m 6,1 km/h (2 Bft) N-NW 337 16,1 C 25,5 C
21.08.2012 12:46 25,6 C 56 % 1019,3 hPa 0,0 l/m 3,2 km/h (1 Bft) W 270 16,2 C 25,6 C
21.08.2012 12:51 25,6 C 56 % 1019,2 hPa 0,0 l/m 1,8 km/h (1 Bft) W-NW 292 16,2 C 25,6 C
21.08.2012 12:56 25,7 C 55 % 1019,3 hPa 0,0 l/m 1,4 km/h (1 Bft) N-NW 337 16,0 C 25,7 C
21.08.2012 13:01 25,9 C 54 % 1019,2 hPa 0,0 l/m 5,8 km/h (2 Bft) SW 225 15,9 C 25,9 C
21.08.2012 13:06 25,9 C 54 % 1019,1 hPa 0,0 l/m 2,9 km/h (1 Bft) SW 225 15,9 C 25,9 C
21.08.2012 13:11 25,9 C 54 % 1019,1 hPa 0,0 l/m 4,0 km/h (1 Bft) S 180 15,9 C 25,9 C
21.08.2012 13:16 25,9 C 54 % 1019,0 hPa 0,0 l/m 0,0 km/h (0 Bft) W 270 15,9 C 25,9 C
21.08.2012 13:21 25,9 C 54 % 1019,0 hPa 0,0 l/m 1,8 km/h (1 Bft) W-SW 247 15,9 C 25,9 C
21.08.2012 13:26 25,9 C 54 % 1019,0 hPa 0,0 l/m 0,0 km/h (0 Bft) W 270 15,9 C 25,9 C
21.08.2012 13:31 25,9 C 53 % 1019,0 hPa 0,0 l/m 0,0 km/h (0 Bft) NW 315 15,6 C 25,9 C
21.08.2012 13:36 25,9 C 53 % 1018,8 hPa 0,0 l/m 1,4 km/h (1 Bft) W 270 15,6 C 25,9 C
21.08.2012 13:41 25,9 C 53 % 1018,8 hPa 0,0 l/m 0,0 km/h (0 Bft) O-NO 67 15,6 C 25,9 C
21.08.2012 13:46 26,1 C 52 % 1018,7 hPa 0,0 l/m 5,8 km/h (2 Bft) N-NW 337 15,5 C 26,1 C
21.08.2012 13:51 26,2 C 52 % 1018,7 hPa 0,0 l/m 5,8 km/h (2 Bft) N-NO 22 15,6 C 26,2 C
21.08.2012 13:56 26,2 C 51 % 1018,6 hPa 0,0 l/m 3,6 km/h (1 Bft) N-NO 22 15,2 C 26,2 C
21.08.2012 14:01 26,3 C 50 % 1018,6 hPa 0,0 l/m 2,2 km/h (1 Bft) N 360 15,0 C 26,3 C
21.08.2012 14:06 26,3 C 51 % 1018,5 hPa 0,0 l/m 2,9 km/h (1 Bft) N-NW 337 15,3 C 26,3 C
21.08.2012 14:11 26,6 C 50 % 1018,5 hPa 0,0 l/m 3,2 km/h (1 Bft) N-NW 337 15,3 C 26,6 C
21.08.2012 14:16 26,6 C 49 % 1018,5 hPa 0,0 l/m 0,0 km/h (0 Bft) NO 45 15,0 C 26,6 C
21.08.2012 14:21 26,8 C 50 % 1018,2 hPa 0,0 l/m 4,3 km/h (1 Bft) N 360 15,5 C 26,8 C
21.08.2012 14:26 26,9 C 50 % 1018,2 hPa 0,0 l/m 0,0 km/h (0 Bft) NO 45 15,6 C 26,9 C
21.08.2012 14:31 27,1 C 49 % 1018,0 hPa 0,0 l/m 0,0 km/h (0 Bft) N-NW 337 15,4 C 27,1 C
21.08.2012 14:36 27,0 C 49 % 1018,0 hPa 0,0 l/m 6,5 km/h (2 Bft) W-NW 292 15,4 C 27,0 C
21.08.2012 14:41 27,0 C 49 % 1017,9 hPa 0,0 l/m 3,6 km/h (1 Bft) S-SW 202 15,4 C 27,0 C
21.08.2012 14:46 27,1 C 49 % 1018,1 hPa 0,0 l/m 2,2 km/h (1 Bft) W 270 15,4 C 27,1 C
21.08.2012 14:51 27,1 C 50 % 1018,1 hPa 0,0 l/m 4,7 km/h (1 Bft) N-NW 337 15,8 C 27,1 C
21.08.2012 14:56 26,6 C 49 % 1018,0 hPa 0,0 l/m 2,2 km/h (1 Bft) N-NO 22 15,0 C 26,6 C
21.08.2012 15:01 26,1 C 50 % 1018,0 hPa 0,0 l/m 3,2 km/h (1 Bft) NO 45 14,8 C 26,1 C
21.08.2012 15:06 25,9 C 51 % 1018,0 hPa 0,0 l/m 3,6 km/h (1 Bft) N 360 15,0 C 25,9 C
21.08.2012 15:11 25,9 C 51 % 1017,9 hPa 0,0 l/m 1,1 km/h (1 Bft) W-NW 292 15,0 C 25,9 C
21.08.2012 15:16 25,9 C 50 % 1017,8 hPa 0,0 l/m 0,0 km/h (0 Bft) NO 45 14,7 C 25,9 C
21.08.2012 15:21 25,9 C 51 % 1017,6 hPa 0,0 l/m 4,7 km/h (1 Bft) N 360 15,0 C 25,9 C
21.08.2012 15:26 25,8 C 51 % 1017,5 hPa 0,0 l/m 0,0 km/h (0 Bft) NO 45 14,9 C 25,8 C
21.08.2012 15:31 25,9 C 51 % 1017,5 hPa 0,0 l/m 5,0 km/h (1 Bft) N 360 15,0 C 25,9 C
21.08.2012 15:36 25,8 C 49 % 1017,6 hPa 0,0 l/m 4,0 km/h (1 Bft) N 360 14,3 C 25,8 C
21.08.2012 15:41 25,9 C 50 % 1017,5 hPa 0,0 l/m 5,0 km/h (1 Bft) O 90 14,7 C 25,9 C
21.08.2012 15:46 25,9 C 49 % 1017,6 hPa 0,0 l/m 1,4 km/h (1 Bft) NO 45 14,4 C 25,9 C
21.08.2012 15:51 26,1 C 49 % 1017,5 hPa 0,0 l/m 0,0 km/h (0 Bft) NO 45 14,5 C 26,1 C
21.08.2012 15:56 26,3 C 49 % 1017,5 hPa 0,0 l/m 5,0 km/h (1 Bft) W-SW 247 14,7 C 26,3 C
21.08.2012 16:01 26,6 C 49 % 1017,4 hPa 0,0 l/m 3,2 km/h (1 Bft) W 270 15,0 C 26,6 C
21.08.2012 16:06 26,9 C 48 % 1017,3 hPa 0,0 l/m 0,0 km/h (0 Bft) W 270 14,9 C 26,9 C
21.08.2012 16:11 26,9 C 48 % 1017,3 hPa 0,0 l/m 2,2 km/h (1 Bft) SO 135 14,9 C 26,9 C
21.08.2012 16:16 26,9 C 48 % 1017,3 hPa 0,0 l/m 0,0 km/h (0 Bft) S 180 14,9 C 26,9 C
21.08.2012 16:21 26,9 C 48 % 1017,2 hPa 0,0 l/m 1,8 km/h (1 Bft) S 180 14,9 C 26,9 C
21.08.2012 16:26 27,1 C 48 % 1017,1 hPa 0,0 l/m 0,0 km/h (0 Bft) S 180 15,1 C 27,1 C
21.08.2012 16:31 27,1 C 48 % 1017,2 hPa 0,0 l/m 2,9 km/h (1 Bft) W-NW 292 15,1 C 27,1 C
21.08.2012 16:36 26,9 C 48 % 1017,3 hPa 0,0 l/m 2,9 km/h (1 Bft) W 270 14,9 C 26,9 C
21.08.2012 16:41 26,8 C 47 % 1017,2 hPa 0,0 l/m 1,4 km/h (1 Bft) NO 45 14,5 C 26,8 C
21.08.2012 16:46 26,3 C 48 % 1017,1 hPa 0,0 l/m 1,8 km/h (1 Bft) N-NO 22 14,4 C 26,3 C
21.08.2012 16:51 25,9 C 49 % 1017,2 hPa 0,0 l/m 3,2 km/h (1 Bft) N 360 14,4 C 25,9 C
21.08.2012 16:56 25,7 C 49 % 1017,0 hPa 0,0 l/m 1,4 km/h (1 Bft) N-NO 22 14,2 C 25,7 C
21.08.2012 17:01 25,6 C 50 % 1017,0 hPa 0,0 l/m 0,0 km/h (0 Bft) N-NO 22 14,4 C 25,6 C
21.08.2012 17:06 25,7 C 50 % 1016,9 hPa 0,0 l/m 0,0 km/h (0 Bft) N-NO 22 14,5 C 25,7 C
21.08.2012 17:11 25,8 C 49 % 1016,9 hPa 0,0 l/m 3,2 km/h (1 Bft) N 360 14,3 C 25,8 C
21.08.2012 17:16 25,8 C 49 % 1016,8 hPa 0,0 l/m 0,0 km/h (0 Bft) O-NO 67 14,3 C 25,8 C
21.08.2012 17:21 25,8 C 49 % 1016,7 hPa 0,0 l/m 2,9 km/h (1 Bft) O-NO 67 14,3 C 25,8 C
21.08.2012 17:26 25,9 C 49 % 1016,6 hPa 0,0 l/m 0,0 km/h (0 Bft) O-NO 67 14,4 C 25,9 C
21.08.2012 17:31 25,9 C 50 % 1016,7 hPa 0,0 l/m 1,4 km/h (1 Bft) O-NO 67 14,7 C 25,9 C
21.08.2012 17:36 25,6 C 51 % 1016,5 hPa 0,0 l/m 5,0 km/h (1 Bft) O-NO 67 14,7 C 25,6 C
21.08.2012 17:41 25,5 C 52 % 1016,5 hPa 0,0 l/m 0,0 km/h (0 Bft) O 90 14,9 C 25,5 C
21.08.2012 17:46 25,4 C 52 % 1016,4 hPa 0,0 l/m 3,2 km/h (1 Bft) O-SO 112 14,8 C 25,4 C
21.08.2012 17:51 25,4 C 53 % 1016,4 hPa 0,0 l/m 3,2 km/h (1 Bft) O-SO 112 15,1 C 25,4 C
21.08.2012 17:56 25,3 C 53 % 1016,2 hPa 0,0 l/m 3,2 km/h (1 Bft) SO 135 15,0 C 25,3 C
21.08.2012 18:01 25,2 C 54 % 1016,3 hPa 0,0 l/m 5,0 km/h (1 Bft) O-SO 112 15,2 C 25,2 C
21.08.2012 18:06 25,1 C 54 % 1016,2 hPa 0,0 l/m 0,0 km/h (0 Bft) SO 135 15,1 C 25,1 C
21.08.2012 18:11 25,2 C 55 % 1016,2 hPa 0,0 l/m 1,4 km/h (1 Bft) O-SO 112 15,5 C 25,2 C
21.08.2012 18:16 25,0 C 56 % 1016,0 hPa 0,0 l/m 3,2 km/h (1 Bft) O 90 15,6 C 25,0 C
21.08.2012 18:21 24,9 C 57 % 1016,1 hPa 0,0 l/m 3,6 km/h (1 Bft) O-SO 112 15,8 C 24,9 C
21.08.2012 18:26 24,9 C 57 % 1016,0 hPa 0,0 l/m 6,5 km/h (2 Bft) O-NO 67 15,8 C 24,9 C
21.08.2012 18:31 24,8 C 58 % 1015,9 hPa 0,0 l/m 1,4 km/h (1 Bft) O-NO 67 16,0 C 24,8 C
21.08.2012 18:36 24,8 C 58 % 1015,9 hPa 0,0 l/m 1,4 km/h (1 Bft) NO 45 16,0 C 24,8 C
21.08.2012 18:41 24,7 C 58 % 1016,0 hPa 0,0 l/m 3,6 km/h (1 Bft) O-NO 67 15,9 C 24,7 C
21.08.2012 18:46 24,6 C 58 % 1015,6 hPa 0,0 l/m 0,0 km/h (0 Bft) O-NO 67 15,8 C 24,6 C
21.08.2012 18:51 24,6 C 58 % 1015,4 hPa 0,0 l/m 3,2 km/h (1 Bft) SO 135 15,8 C 24,6 C
21.08.2012 18:56 24,5 C 58 % 1015,4 hPa 0,0 l/m 2,5 km/h (1 Bft) O-SO 112 15,7 C 24,5 C
21.08.2012 19:01 24,4 C 58 % 1015,2 hPa 0,0 l/m 0,0 km/h (0 Bft) O-NO 67 15,6 C 24,4 C
21.08.2012 19:06 24,4 C 58 % 1015,3 hPa 0,0 l/m 1,8 km/h (1 Bft) N 360 15,6 C 24,4 C
21.08.2012 19:11 24,4 C 58 % 1015,3 hPa 0,0 l/m 3,6 km/h (1 Bft) O 90 15,6 C 24,4 C
21.08.2012 19:16 24,3 C 58 % 1015,2 hPa 0,0 l/m 0,0 km/h (0 Bft) O-NO 67 15,5 C 24,3 C
21.08.2012 19:21 24,2 C 58 % 1015,1 hPa 0,0 l/m 3,2 km/h (1 Bft) O-NO 67 15,4 C 24,2 C
21.08.2012 19:26 24,2 C 58 % 1015,1 hPa 0,0 l/m 3,2 km/h (1 Bft) O-NO 67 15,4 C 24,2 C
21.08.2012 19:31 24,2 C 59 % 1015,1 hPa 0,0 l/m 0,0 km/h (0 Bft) NO 45 15,7 C 24,2 C
21.08.2012 19:36 24,2 C 59 % 1015,0 hPa 0,0 l/m 1,4 km/h (1 Bft) O-NO 67 15,7 C 24,2 C
21.08.2012 19:41 24,2 C 59 % 1015,0 hPa 0,0 l/m 0,0 km/h (0 Bft) NO 45 15,7 C 24,2 C
21.08.2012 19:46 24,1 C 59 % 1015,0 hPa 0,0 l/m 1,4 km/h (1 Bft) O-NO 67 15,6 C 24,1 C
21.08.2012 19:51 23,9 C 60 % 1014,9 hPa 0,0 l/m 2,9 km/h (1 Bft) O-NO 67 15,7 C 23,9 C
21.08.2012 19:56 23,9 C 61 % 1015,0 hPa 0,0 l/m 2,2 km/h (1 Bft) O-NO 67 15,9 C 23,9 C
21.08.2012 20:01 23,8 C 61 % 1015,1 hPa 0,0 l/m 0,0 km/h (0 Bft) O-NO 67 15,8 C 23,8 C
21.08.2012 20:06 23,6 C 62 % 1015,1 hPa 0,0 l/m 0,0 km/h (0 Bft) O-NO 67 15,9 C 23,6 C
21.08.2012 20:11 23,6 C 62 % 1015,0 hPa 0,0 l/m 1,1 km/h (1 Bft) O-NO 67 15,9 C 23,6 C
21.08.2012 20:16 23,4 C 63 % 1014,9 hPa 0,0 l/m 2,9 km/h (1 Bft) O-NO 67 15,9 C 23,4 C
21.08.2012 20:21 23,3 C 64 % 1014,8 hPa 0,0 l/m 2,5 km/h (1 Bft) O-NO 67 16,1 C 23,3 C
21.08.2012 20:26 23,2 C 64 % 1014,8 hPa 0,0 l/m 2,9 km/h (1 Bft) O-NO 67 16,0 C 23,2 C
21.08.2012 20:31 23,1 C 64 % 1014,6 hPa 0,0 l/m 3,2 km/h (1 Bft) O-NO 67 15,9 C 23,1 C
21.08.2012 20:36 23,0 C 64 % 1014,6 hPa 0,0 l/m 1,4 km/h (1 Bft) O-NO 67 15,8 C 23,0 C
21.08.2012 20:41 22,9 C 64 % 1014,5 hPa 0,0 l/m 2,2 km/h (1 Bft) O-NO 67 15,7 C 22,9 C
21.08.2012 20:46 22,8 C 64 % 1014,5 hPa 0,0 l/m 3,2 km/h (1 Bft) O-NO 67 15,6 C 22,8 C
21.08.2012 20:51 22,8 C 64 % 1014,5 hPa 0,0 l/m 1,4 km/h (1 Bft) NO 45 15,6 C 22,8 C
21.08.2012 20:56 22,7 C 65 % 1014,3 hPa 0,0 l/m 1,4 km/h (1 Bft) NO 45 15,8 C 22,7 C
21.08.2012 21:01 22,6 C 65 % 1014,5 hPa 0,0 l/m 0,0 km/h (0 Bft) O-NO 67 15,7 C 22,6 C
21.08.2012 21:06 22,5 C 65 % 1014,5 hPa 0,0 l/m 2,5 km/h (1 Bft) O-NO 67 15,6 C 22,5 C
21.08.2012 21:11 22,5 C 65 % 1014,6 hPa 0,0 l/m 0,0 km/h (0 Bft) O-NO 67 15,6 C 22,5 C
21.08.2012 21:16 22,4 C 66 % 1014,6 hPa 0,0 l/m 0,0 km/h (0 Bft) O-NO 67 15,7 C 22,4 C
21.08.2012 21:21 22,4 C 67 % 1014,7 hPa 0,0 l/m 5,0 km/h (1 Bft) N-NO 22 16,0 C 22,4 C
21.08.2012 21:26 22,3 C 68 % 1014,5 hPa 0,0 l/m 0,0 km/h (0 Bft) O-NO 67 16,1 C 22,3 C
21.08.2012 21:31 22,2 C 68 % 1014,3 hPa 0,0 l/m 2,5 km/h (1 Bft) O-NO 67 16,0 C 22,2 C
21.08.2012 21:36 22,1 C 68 % 1014,3 hPa 0,0 l/m 1,4 km/h (1 Bft) O-NO 67 15,9 C 22,1 C
21.08.2012 21:41 21,9 C 68 % 1014,4 hPa 0,0 l/m 1,4 km/h (1 Bft) O-NO 67 15,7 C 21,9 C
21.08.2012 21:46 21,9 C 68 % 1014,3 hPa 0,0 l/m 2,9 km/h (1 Bft) O 90 15,7 C 21,9 C
21.08.2012 21:51 21,9 C 68 % 1014,5 hPa 0,0 l/m 0,0 km/h (0 Bft) O-NO 67 15,7 C 21,9 C
21.08.2012 21:56 21,9 C 68 % 1014,5 hPa 0,0 l/m 1,4 km/h (1 Bft) O-NO 67 15,7 C 21,9 C
21.08.2012 22:01 21,8 C 68 % 1014,6 hPa 0,0 l/m 0,0 km/h (0 Bft) N-NO 22 15,6 C 21,8 C
21.08.2012 22:06 21,8 C 68 % 1014,6 hPa 0,0 l/m 2,2 km/h (1 Bft) S-SW 202 15,6 C 21,8 C
21.08.2012 22:11 21,8 C 69 % 1014,6 hPa 0,0 l/m 4,3 km/h (1 Bft) S-SW 202 15,9 C 21,8 C
21.08.2012 22:16 21,8 C 70 % 1014,8 hPa 0,0 l/m 9,0 km/h (2 Bft) S 180 16,1 C 21,8 C
21.08.2012 22:21 21,6 C 72 % 1014,0 hPa 0,0 l/m 5,8 km/h (2 Bft) O-NO 67 16,3 C 21,6 C
21.08.2012 22:26 21,5 C 72 % 1014,3 hPa 0,0 l/m 4,3 km/h (1 Bft) S 180 16,2 C 21,5 C
21.08.2012 22:31 21,4 C 73 % 1014,2 hPa 0,0 l/m 0,0 km/h (0 Bft) O 90 16,4 C 21,4 C
21.08.2012 22:36 21,3 C 73 % 1014,3 hPa 0,0 l/m 0,0 km/h (0 Bft) SO 135 16,3 C 21,3 C
21.08.2012 22:41 21,3 C 73 % 1014,2 hPa 0,0 l/m 0,0 km/h (0 Bft) SO 135 16,3 C 21,3 C
21.08.2012 22:46 21,2 C 73 % 1014,5 hPa 0,0 l/m 0,0 km/h (0 Bft) SO 135 16,2 C 21,2 C
21.08.2012 22:51 21,1 C 74 % 1014,2 hPa 0,0 l/m 5,0 km/h (1 Bft) N-NO 22 16,3 C 21,1 C
21.08.2012 22:56 20,9 C 74 % 1014,2 hPa 0,0 l/m 1,4 km/h (1 Bft) N 360 16,1 C 20,9 C
21.08.2012 23:01 20,7 C 75 % 1014,0 hPa 0,0 l/m 2,5 km/h (1 Bft) N-NO 22 16,1 C 20,7 C
21.08.2012 23:06 20,7 C 76 % 1013,8 hPa 0,0 l/m 0,0 km/h (0 Bft) O-NO 67 16,3 C 20,7 C
21.08.2012 23:11 20,7 C 76 % 1013,8 hPa 0,0 l/m 0,0 km/h (0 Bft) O-NO 67 16,3 C 20,7 C
21.08.2012 23:16 20,7 C 77 % 1014,0 hPa 0,5 l/m 0,0 km/h (0 Bft) S-SO 157 16,5 C 20,7 C
21.08.2012 23:21 20,6 C 77 % 1013,8 hPa 0,0 l/m 0,0 km/h (0 Bft) S-SO 157 16,4 C 20,6 C
21.08.2012 23:26 20,6 C 78 % 1013,6 hPa 0,0 l/m 2,2 km/h (1 Bft) O-NO 67 16,6 C 20,6 C
21.08.2012 23:31 20,5 C 79 % 1013,6 hPa 0,0 l/m 1,4 km/h (1 Bft) O-SO 112 16,7 C 20,5 C
21.08.2012 23:36 20,4 C 79 % 1013,5 hPa 0,0 l/m 0,0 km/h (0 Bft) S-SO 157 16,6 C 20,4 C
21.08.2012 23:41 20,4 C 80 % 1013,9 hPa 0,0 l/m 2,2 km/h (1 Bft) S-SW 202 16,8 C 20,4 C
21.08.2012 23:46 20,3 C 80 % 1013,8 hPa 0,0 l/m 0,0 km/h (0 Bft) S-SW 202 16,7 C 20,3 C
21.08.2012 23:51 20,2 C 81 % 1013,9 hPa 0,5 l/m 0,0 km/h (0 Bft) S-SO 157 16,8 C 20,2 C
21.08.2012 23:56 20,1 C 82 % 1013,5 hPa 0,0 l/m 11,5 km/h (2 Bft) S-SO 157 16,9 C 20,1 C
_ Min-Zeit 06:11 16:41 23:36 - 00:06 - - 16:56 06:11
Minimum _ 17,3 C 47 % 1013,5 hPa - 0,0 km/h (0 Bft) - - 14,2 C 17,3 C
_ Max-Zeit 14:31 06:21 06:46 23:16 23:56 - - 23:56 14:31
Maximum _ 27,1 C 86 % 1020,9 hPa 0,5 l/m 11,5 km/h
S-SO (2 Bft)
- - 16,9 C 27,1 C
Durchschnitt _ 22,3 C 67 % 1018,3 hPa #1,0 l/m 2,7 km/h (1 Bft) O-NO - 15,6 C 22,3 C
(c) by David Heller